Time,TemperatureF,DewpointF,PressureIn,WindDirection,WindDirectionDegrees,WindSpeedMPH,WindSpeedGustMPH,Humidity,HourlyPrecipIn,Conditions,Clouds,dailyrainin,SoftwareType,DateUTC
2013-05-11 00:00:00,47.3,44.2,29.86,NNW,341,7.0,10.0,89,0.00,,---,0.22,VWS V14.01,2013-05-11 04:00:00,
2013-05-11 00:01:00,47.3,44.2,29.86,NNW,331,7.0,7.0,89,0.00,,---,0.00,VWS V14.01,2013-05-11 04:01:00,
2013-05-11 00:06:00,47.2,44.1,29.87,NNW,346,8.0,11.0,89,0.00,,---,0.00,VWS V14.01,2013-05-11 04:06:00,
2013-05-11 00:11:00,47.1,44.0,29.86,NW,321,5.0,11.0,89,0.00,,---,0.00,VWS V14.01,2013-05-11 04:11:00,
2013-05-11 00:16:00,46.9,43.8,29.86,NNW,343,4.0,11.0,89,0.00,,---,0.00,VWS V14.01,2013-05-11 04:16:00,
2013-05-11 00:22:00,46.9,43.8,29.86,NNW,339,3.0,11.0,89,0.00,,---,0.00,VWS V14.01,2013-05-11 04:22:00,
2013-05-11 00:27:00,46.9,43.5,29.86,NNW,346,3.0,11.0,88,0.00,,---,0.00,VWS V14.01,2013-05-11 04:27:00,
2013-05-11 00:30:00,46.9,43.5,29.86,NNW,344,4.0,11.0,88,0.00,,---,0.00,VWS V14.01,2013-05-11 04:30:00,
2013-05-11 00:32:00,46.9,43.5,29.86,NW,312,2.0,6.0,88,0.00,,---,0.00,VWS V14.01,2013-05-11 04:32:00,
2013-05-11 00:37:00,46.9,43.5,29.86,NNW,340,4.0,8.0,88,0.00,,---,0.00,VWS V14.01,2013-05-11 04:37:00,
2013-05-11 00:42:00,46.9,43.5,29.86,NNW,347,5.0,8.0,88,0.00,,---,0.00,VWS V14.01,2013-05-11 04:42:00,
2013-05-11 00:47:00,46.9,43.2,29.86,NE,34,6.0,8.0,87,0.00,,---,0.00,VWS V14.01,2013-05-11 04:47:00,
2013-05-11 00:52:00,46.9,42.9,29.86,NNW,345,6.0,8.0,86,0.00,,---,0.00,VWS V14.01,2013-05-11 04:52:00,
2013-05-11 00:57:00,46.9,42.9,29.86,NNW,341,3.0,8.0,86,0.00,,---,0.00,VWS V14.01,2013-05-11 04:57:00,
2013-05-11 01:00:00,46.9,43.2,29.86,North,356,5.0,8.0,87,0.00,,---,0.00,VWS V14.01,2013-05-11 05:00:00,
2013-05-11 01:02:00,46.9,43.2,29.86,NNE,19,6.0,6.0,87,0.00,,---,0.00,VWS V14.01,2013-05-11 05:02:00,
2013-05-11 01:07:00,46.9,42.9,29.86,North,358,8.0,10.0,86,0.00,,---,0.00,VWS V14.01,2013-05-11 05:07:00,
2013-05-11 01:12:00,46.9,42.9,29.86,North,354,6.0,10.0,86,0.00,,---,0.00,VWS V14.01,2013-05-11 05:12:00,
2013-05-11 01:17:00,46.8,42.8,29.86,NW,326,4.0,10.0,86,0.00,,---,0.00,VWS V14.01,2013-05-11 05:17:00,
2013-05-11 01:22:00,46.8,42.8,29.86,NNW,340,4.0,10.0,86,0.00,,---,0.00,VWS V14.01,2013-05-11 05:22:00,
2013-05-11 01:27:00,46.8,42.8,29.86,NW,312,2.0,10.0,86,0.00,,---,0.00,VWS V14.01,2013-05-11 05:27:00,
2013-05-11 01:30:00,46.8,42.8,29.86,NW,323,4.0,10.0,86,0.00,,---,0.00,VWS V14.01,2013-05-11 05:30:00,
2013-05-11 01:32:00,46.8,42.8,29.86,NNW,337,3.0,4.0,86,0.00,,---,0.00,VWS V14.01,2013-05-11 05:32:00,
2013-05-11 01:37:00,46.8,42.8,29.87,NNW,330,5.0,7.0,86,0.00,,---,0.00,VWS V14.01,2013-05-11 05:37:00,
2013-05-11 01:42:00,46.8,42.5,29.87,NNW,340,4.0,7.0,85,0.00,,---,0.00,VWS V14.01,2013-05-11 05:42:00,
2013-05-11 01:47:00,46.8,42.5,29.87,NNW,344,3.0,7.0,85,0.00,,---,0.00,VWS V14.01,2013-05-11 05:47:00,
2013-05-11 01:52:00,46.7,42.1,29.87,NW,326,3.0,7.0,84,0.00,,---,0.00,VWS V14.01,2013-05-11 05:52:00,
2013-05-11 01:57:00,46.7,42.1,29.87,NNW,339,4.0,9.0,84,0.00,,---,0.00,VWS V14.01,2013-05-11 05:57:00,
2013-05-11 02:00:00,46.6,42.0,29.87,NNW,335,3.0,9.0,84,0.00,,---,0.00,VWS V14.01,2013-05-11 06:00:00,
2013-05-11 02:02:00,46.6,42.3,29.87,NNW,335,2.0,3.0,85,0.00,,---,0.00,VWS V14.01,2013-05-11 06:02:00,
2013-05-11 02:07:00,46.6,42.0,29.87,NNW,347,2.0,8.0,84,0.00,,---,0.00,VWS V14.01,2013-05-11 06:07:00,
2013-05-11 02:12:00,46.6,42.0,29.87,NW,323,4.0,8.0,84,0.00,,---,0.00,VWS V14.01,2013-05-11 06:12:00,
2013-05-11 02:17:00,46.6,42.0,29.87,NW,314,0.0,8.0,84,0.00,,---,0.00,VWS V14.01,2013-05-11 06:17:00,
2013-05-11 02:22:00,46.6,42.0,29.87,NNW,328,3.0,8.0,84,0.00,,---,0.00,VWS V14.01,2013-05-11 06:22:00,
2013-05-11 02:27:00,46.6,42.0,29.87,NW,325,0.0,8.0,84,0.00,,---,0.00,VWS V14.01,2013-05-11 06:27:00,
2013-05-11 02:30:00,46.7,42.1,29.87,NNW,343,2.0,8.0,84,0.00,,---,0.00,VWS V14.01,2013-05-11 06:30:00,
2013-05-11 02:32:00,46.7,42.4,29.87,North,358,1.0,3.0,85,0.00,,---,0.00,VWS V14.01,2013-05-11 06:32:00,
2013-05-11 02:37:00,46.7,42.4,29.87,NNW,343,3.0,3.0,85,0.00,,---,0.00,VWS V14.01,2013-05-11 06:37:00,
2013-05-11 02:42:00,46.7,42.4,29.88,NNW,329,2.0,3.0,85,0.00,,---,0.00,VWS V14.01,2013-05-11 06:42:00,
2013-05-11 02:47:00,46.7,42.4,29.87,North,350,3.0,3.0,85,0.00,,---,0.00,VWS V14.01,2013-05-11 06:47:00,
2013-05-11 02:52:00,46.7,42.4,29.87,NNW,341,2.0,5.0,85,0.00,,---,0.00,VWS V14.01,2013-05-11 06:52:00,
2013-05-11 02:57:00,46.7,42.4,29.87,NNW,330,1.0,5.0,85,0.00,,---,0.00,VWS V14.01,2013-05-11 06:57:00,
2013-05-11 03:00:00,46.7,42.4,29.87,NNW,338,2.0,5.0,85,0.00,,---,0.00,VWS V14.01,2013-05-11 07:00:00,
2013-05-11 03:02:00,46.7,42.7,29.87,North,352,2.0,3.0,86,0.00,,---,0.00,VWS V14.01,2013-05-11 07:02:00,
2013-05-11 03:07:00,46.6,42.6,29.88,NNW,330,1.0,3.0,86,0.00,,---,0.00,VWS V14.01,2013-05-11 07:07:00,
2013-05-11 03:12:00,46.6,42.6,29.88,NNE,30,6.0,7.0,86,0.00,,---,0.00,VWS V14.01,2013-05-11 07:12:00,
2013-05-11 03:17:00,46.6,42.6,29.88,NNW,339,3.0,7.0,86,0.00,,---,0.00,VWS V14.01,2013-05-11 07:17:00,
2013-05-11 03:22:00,46.6,42.9,29.88,North,352,3.0,7.0,87,0.00,,---,0.00,VWS V14.01,2013-05-11 07:22:00,
2013-05-11 03:27:00,46.6,42.9,29.88,NNW,344,2.0,7.0,87,0.00,,---,0.00,VWS V14.01,2013-05-11 07:27:00,
2013-05-11 03:30:00,46.6,42.9,29.88,NNW,339,2.0,7.0,87,0.00,,---,0.00,VWS V14.01,2013-05-11 07:30:00,
2013-05-11 03:32:00,46.6,42.9,29.88,North,355,2.0,3.0,87,0.00,,---,0.00,VWS V14.01,2013-05-11 07:32:00,
2013-05-11 03:37:00,46.6,43.2,29.88,NW,313,0.0,4.0,88,0.00,,---,0.00,VWS V14.01,2013-05-11 07:37:00,
2013-05-11 03:42:00,46.5,42.8,29.88,NNW,346,2.0,4.0,87,0.00,,---,0.00,VWS V14.01,2013-05-11 07:42:00,
2013-05-11 03:47:00,46.5,43.1,29.88,NNW,335,3.0,4.0,88,0.00,,---,0.00,VWS V14.01,2013-05-11 07:47:00,
2013-05-11 03:52:00,46.4,43.0,29.88,North,352,6.0,6.0,88,0.00,,---,0.00,VWS V14.01,2013-05-11 07:52:00,
2013-05-11 03:57:00,46.4,43.0,29.88,NNW,348,5.0,6.0,88,0.00,,---,0.00,VWS V14.01,2013-05-11 07:57:00,
2013-05-11 04:00:00,46.4,43.0,29.88,North,349,5.0,6.0,88,0.00,,---,0.00,VWS V14.01,2013-05-11 08:00:00,
2013-05-11 04:02:00,46.4,43.0,29.88,NNW,340,2.0,5.0,88,0.00,,---,0.00,VWS V14.01,2013-05-11 08:02:00,
2013-05-11 04:07:00,46.4,43.3,29.88,NNW,342,2.0,5.0,89,0.00,,---,0.00,VWS V14.01,2013-05-11 08:07:00,
2013-05-11 04:12:00,46.5,43.4,29.88,NW,314,1.0,5.0,89,0.00,,---,0.00,VWS V14.01,2013-05-11 08:12:00,
2013-05-11 04:17:00,46.5,43.4,29.88,NW,317,2.0,5.0,89,0.00,,---,0.00,VWS V14.01,2013-05-11 08:17:00,
2013-05-11 04:22:00,46.5,43.4,29.88,NW,314,2.0,5.0,89,0.00,,---,0.00,VWS V14.01,2013-05-11 08:22:00,
2013-05-11 04:27:00,46.6,43.5,29.88,WNW,282,3.0,5.0,89,0.00,,---,0.00,VWS V14.01,2013-05-11 08:27:00,
2013-05-11 04:30:00,46.6,43.5,29.88,WNW,298,1.0,5.0,89,0.00,,---,0.00,VWS V14.01,2013-05-11 08:30:00,
2013-05-11 04:32:00,46.6,43.5,29.88,WNW,293,0.0,2.0,89,0.00,,---,0.00,VWS V14.01,2013-05-11 08:32:00,
2013-05-11 04:37:00,46.7,43.6,29.88,NNW,333,2.0,3.0,89,0.00,,---,0.00,VWS V14.01,2013-05-11 08:37:00,
2013-05-11 04:42:00,46.7,43.6,29.88,NW,326,2.0,5.0,89,0.00,,---,0.00,VWS V14.01,2013-05-11 08:42:00,
2013-05-11 04:47:00,46.7,43.6,29.88,North,10,2.0,5.0,89,0.00,,---,0.00,VWS V14.01,2013-05-11 08:47:00,
2013-05-11 04:52:00,46.7,43.6,29.88,NW,322,2.0,5.0,89,0.00,,---,0.00,VWS V14.01,2013-05-11 08:52:00,
2013-05-11 04:57:00,46.8,43.7,29.88,WNW,286,0.0,6.0,89,0.00,,---,0.00,VWS V14.01,2013-05-11 08:57:00,
2013-05-11 05:00:00,46.8,43.7,29.88,NNW,333,3.0,6.0,89,0.00,,---,0.00,VWS V14.01,2013-05-11 09:00:00,
2013-05-11 05:02:00,46.7,43.6,29.88,WNW,284,1.0,5.0,89,0.00,,---,0.00,VWS V14.01,2013-05-11 09:02:00,
2013-05-11 05:07:00,46.7,43.6,29.88,NW,304,1.0,5.0,89,0.00,,---,0.00,VWS V14.01,2013-05-11 09:07:00,
2013-05-11 05:12:00,46.7,43.9,29.87,NW,325,3.0,5.0,90,0.00,,---,0.00,VWS V14.01,2013-05-11 09:12:00,
2013-05-11 05:17:00,46.6,43.8,29.87,NNW,347,4.0,5.0,90,0.00,,---,0.00,VWS V14.01,2013-05-11 09:17:00,
2013-05-11 05:22:00,46.6,43.8,29.87,North,354,1.0,5.0,90,0.00,,---,0.00,VWS V14.01,2013-05-11 09:22:00,
2013-05-11 05:27:00,46.6,44.1,29.87,NW,307,2.0,5.0,91,0.00,,---,0.00,VWS V14.01,2013-05-11 09:27:00,
2013-05-11 05:30:00,46.6,44.1,29.87,West,264,2.0,5.0,91,0.00,,---,0.00,VWS V14.01,2013-05-11 09:30:00,
2013-05-11 05:32:00,46.6,44.1,29.87,NW,308,2.0,4.0,91,0.00,,---,0.00,VWS V14.01,2013-05-11 09:32:00,
2013-05-11 05:37:00,46.6,44.1,29.87,NNW,335,2.0,6.0,91,0.00,,---,0.00,VWS V14.01,2013-05-11 09:37:00,
2013-05-11 05:42:00,46.7,44.2,29.87,WNW,293,2.0,6.0,91,0.00,,---,0.00,VWS V14.01,2013-05-11 09:42:00,
2013-05-11 05:47:00,46.7,44.2,29.87,NW,316,0.0,6.0,91,0.00,,---,0.00,VWS V14.01,2013-05-11 09:47:00,
2013-05-11 05:52:00,46.6,44.1,29.87,WNW,300,2.0,6.0,91,0.00,,---,0.00,VWS V14.01,2013-05-11 09:52:00,
2013-05-11 05:57:00,46.6,44.4,29.87,ESE,116,1.0,6.0,92,0.00,,---,0.00,VWS V14.01,2013-05-11 09:57:00,
2013-05-11 06:00:00,46.6,44.4,29.87,NW,308,3.0,6.0,92,0.00,,---,0.00,VWS V14.01,2013-05-11 10:00:00,
2013-05-11 06:02:00,46.6,44.4,29.87,NNW,337,3.0,4.0,92,0.00,,---,0.00,VWS V14.01,2013-05-11 10:02:00,
2013-05-11 06:07:00,46.7,44.5,29.87,NNW,337,2.0,6.0,92,0.00,,---,0.00,VWS V14.01,2013-05-11 10:07:00,
2013-05-11 06:12:00,46.7,44.5,29.87,NW,326,0.0,6.0,92,0.00,,---,0.00,VWS V14.01,2013-05-11 10:12:00,
2013-05-11 06:17:00,46.7,44.8,29.87,NW,320,1.0,6.0,93,0.00,,---,0.00,VWS V14.01,2013-05-11 10:17:00,
2013-05-11 06:22:00,46.8,44.9,29.87,NNW,337,2.0,6.0,93,0.00,,---,0.00,VWS V14.01,2013-05-11 10:22:00,
2013-05-11 06:27:00,46.8,44.9,29.87,NNW,333,2.0,6.0,93,0.00,,---,0.00,VWS V14.01,2013-05-11 10:27:00,
2013-05-11 06:30:00,46.8,44.9,29.87,NNW,342,1.0,6.0,93,0.00,,---,0.00,VWS V14.01,2013-05-11 10:30:00,
2013-05-11 06:33:00,46.8,44.9,29.87,NW,316,0.0,3.0,93,0.00,,---,0.00,VWS V14.01,2013-05-11 10:33:00,
2013-05-11 06:38:00,46.7,44.8,29.87,NW,316,0.0,3.0,93,0.00,,---,0.00,VWS V14.01,2013-05-11 10:38:00,
2013-05-11 06:43:00,46.7,44.8,29.87,NNW,331,1.0,3.0,93,0.00,,---,0.00,VWS V14.01,2013-05-11 10:43:00,
2013-05-11 06:48:00,46.8,44.9,29.87,NNW,345,0.0,3.0,93,0.00,,---,0.00,VWS V14.01,2013-05-11 10:48:00,
2013-05-11 06:53:00,46.8,44.9,29.87,WSW,252,0.0,3.0,93,0.00,,---,0.00,VWS V14.01,2013-05-11 10:53:00,
2013-05-11 06:58:00,46.8,44.9,29.87,West,280,2.0,5.0,93,0.00,,---,0.00,VWS V14.01,2013-05-11 10:58:00,
2013-05-11 07:00:00,46.8,44.9,29.87,NW,305,1.0,5.0,93,0.00,,---,0.00,VWS V14.01,2013-05-11 11:00:00,
2013-05-11 07:03:00,46.9,45.0,29.87,WNW,283,0.0,1.0,93,0.00,,---,0.00,VWS V14.01,2013-05-11 11:03:00,
2013-05-11 07:08:00,46.9,45.0,29.87,NNE,23,2.0,3.0,93,0.00,,---,0.00,VWS V14.01,2013-05-11 11:08:00,
2013-05-11 07:13:00,47.0,45.1,29.87,NW,308,1.0,3.0,93,0.00,,---,0.00,VWS V14.01,2013-05-11 11:13:00,
2013-05-11 07:18:00,47.0,44.8,29.87,SW,217,1.0,5.0,92,0.00,,---,0.00,VWS V14.01,2013-05-11 11:18:00,
2013-05-11 07:23:00,47.1,44.9,29.87,West,273,1.0,5.0,92,0.00,,---,0.00,VWS V14.01,2013-05-11 11:23:00,
2013-05-11 07:28:00,47.1,44.6,29.87,NW,317,2.0,5.0,91,0.00,,---,0.00,VWS V14.01,2013-05-11 11:28:00,
2013-05-11 07:30:00,47.1,44.6,29.87,NNW,336,0.0,5.0,91,0.00,,---,0.00,VWS V14.01,2013-05-11 11:30:00,
2013-05-11 07:33:00,47.1,44.6,29.87,North,1,1.0,1.0,91,0.00,,---,0.00,VWS V14.01,2013-05-11 11:33:00,
2013-05-11 07:38:00,47.2,44.7,29.87,NNW,340,1.0,6.0,91,0.00,,---,0.00,VWS V14.01,2013-05-11 11:38:00,
2013-05-11 07:43:00,47.2,44.7,29.87,WNW,284,2.0,6.0,91,0.00,,---,0.00,VWS V14.01,2013-05-11 11:43:00,
2013-05-11 07:48:00,47.2,44.7,29.87,NW,322,3.0,6.0,91,0.00,,---,0.00,VWS V14.01,2013-05-11 11:48:00,
2013-05-11 07:53:00,47.2,44.7,29.87,NNW,341,3.0,6.0,91,0.00,,---,0.00,VWS V14.01,2013-05-11 11:53:00,
2013-05-11 07:58:00,47.3,44.8,29.87,West,278,1.0,6.0,91,0.00,,---,0.00,VWS V14.01,2013-05-11 11:58:00,
2013-05-11 08:00:00,47.3,44.8,29.87,NW,325,1.0,6.0,91,0.00,,---,0.00,VWS V14.01,2013-05-11 12:00:00,
2013-05-11 08:03:00,47.3,44.8,29.87,NNW,337,2.0,3.0,91,0.00,,---,0.00,VWS V14.01,2013-05-11 12:03:00,
2013-05-11 08:08:00,47.2,44.4,29.87,NW,309,0.0,4.0,90,0.00,,---,0.00,VWS V14.01,2013-05-11 12:08:00,
2013-05-11 08:13:00,47.2,44.4,29.87,NW,317,5.0,5.0,90,0.00,,---,0.00,VWS V14.01,2013-05-11 12:13:00,
2013-05-11 08:18:00,47.2,44.4,29.86,NW,316,3.0,5.0,90,0.00,,---,0.00,VWS V14.01,2013-05-11 12:18:00,
2013-05-11 08:23:00,47.2,44.4,29.86,North,357,1.0,5.0,90,0.00,,---,0.00,VWS V14.01,2013-05-11 12:23:00,
2013-05-11 08:28:00,47.2,44.4,29.87,NW,318,5.0,5.0,90,0.00,,---,0.00,VWS V14.01,2013-05-11 12:28:00,
2013-05-11 08:30:00,47.2,44.4,29.87,NNW,340,1.0,6.0,90,0.00,,---,0.00,VWS V14.01,2013-05-11 12:30:00,
2013-05-11 08:33:00,47.1,44.3,29.87,North,356,4.0,5.0,90,0.00,,---,0.00,VWS V14.01,2013-05-11 12:33:00,
2013-05-11 08:38:00,47.1,44.3,29.87,NW,319,1.0,5.0,90,0.00,,---,0.00,VWS V14.01,2013-05-11 12:38:00,
2013-05-11 08:43:00,47.1,44.0,29.88,West,278,1.0,5.0,89,0.00,,---,0.00,VWS V14.01,2013-05-11 12:43:00,
2013-05-11 08:48:00,47.1,44.3,29.87,NW,316,4.0,5.0,90,0.00,,---,0.00,VWS V14.01,2013-05-11 12:48:00,
2013-05-11 08:53:00,47.2,44.4,29.87,NNW,342,1.0,5.0,90,0.00,,---,0.00,VWS V14.01,2013-05-11 12:53:00,
2013-05-11 08:58:00,47.3,44.5,29.87,NNW,335,1.0,5.0,90,0.00,,---,0.00,VWS V14.01,2013-05-11 12:58:00,
2013-05-11 09:00:00,47.3,44.5,29.87,WNW,283,1.0,5.0,90,0.00,,---,0.00,VWS V14.01,2013-05-11 13:00:00,
2013-05-11 09:03:00,47.5,44.7,29.87,West,278,2.0,3.0,90,0.00,,---,0.00,VWS V14.01,2013-05-11 13:03:00,
2013-05-11 09:08:00,47.4,44.6,29.87,North,352,0.0,4.0,90,0.00,,---,0.00,VWS V14.01,2013-05-11 13:08:00,
2013-05-11 09:13:00,47.4,44.3,29.88,West,260,3.0,4.0,89,0.00,,---,0.00,VWS V14.01,2013-05-11 13:13:00,
2013-05-11 09:18:00,47.2,44.4,29.88,SW,224,2.0,7.0,90,0.00,,---,0.00,VWS V14.01,2013-05-11 13:18:00,
2013-05-11 09:23:00,47.1,44.3,29.88,NNW,340,2.0,7.0,90,0.00,,---,0.00,VWS V14.01,2013-05-11 13:23:00,
2013-05-11 09:28:00,47.3,44.8,29.88,SE,135,1.0,7.0,91,0.00,,---,0.00,VWS V14.01,2013-05-11 13:28:00,
2013-05-11 09:30:00,47.3,44.8,29.88,SW,226,0.0,7.0,91,0.00,,---,0.00,VWS V14.01,2013-05-11 13:30:00,
2013-05-11 09:33:00,47.3,44.5,29.87,SW,220,3.0,4.0,90,0.00,,---,0.00,VWS V14.01,2013-05-11 13:33:00,
2013-05-11 09:38:00,47.2,44.1,29.87,West,266,0.0,4.0,89,0.00,,---,0.00,VWS V14.01,2013-05-11 13:38:00,
2013-05-11 09:43:00,47.4,44.6,29.87,SSW,207,0.0,5.0,90,0.00,,---,0.00,VWS V14.01,2013-05-11 13:43:00,
2013-05-11 09:48:00,47.5,44.4,29.87,NNW,330,1.0,5.0,89,0.00,,---,0.00,VWS V14.01,2013-05-11 13:48:00,
2013-05-11 09:53:00,47.5,44.4,29.87,NW,304,3.0,5.0,89,0.00,,---,0.00,VWS V14.01,2013-05-11 13:53:00,
2013-05-11 09:58:00,47.4,44.3,29.87,WNW,284,1.0,7.0,89,0.00,,---,0.00,VWS V14.01,2013-05-11 13:58:00,
2013-05-11 10:00:00,47.5,44.7,29.87,NE,40,1.0,7.0,90,0.00,,---,0.00,VWS V14.01,2013-05-11 14:00:00,
2013-05-11 10:03:00,47.5,44.7,29.87,West,281,3.0,5.0,90,0.00,,---,0.00,VWS V14.01,2013-05-11 14:03:00,
2013-05-11 10:08:00,47.3,44.2,29.87,WSW,239,0.0,6.0,89,0.00,,---,0.00,VWS V14.01,2013-05-11 14:08:00,
2013-05-11 10:13:00,47.2,44.1,29.87,WSW,248,1.0,6.0,89,0.00,,---,0.00,VWS V14.01,2013-05-11 14:13:00,
2013-05-11 10:18:00,47.4,44.6,29.87,NW,317,3.0,6.0,90,0.00,,---,0.00,VWS V14.01,2013-05-11 14:18:00,
2013-05-11 10:23:00,47.5,44.4,29.87,West,262,4.0,6.0,89,0.00,,---,0.00,VWS V14.01,2013-05-11 14:23:00,
2013-05-11 10:28:00,47.4,44.3,29.87,West,264,3.0,6.0,89,0.00,,---,0.00,VWS V14.01,2013-05-11 14:28:00,
2013-05-11 10:30:00,47.5,44.4,29.87,SW,233,1.0,6.0,89,0.00,,---,0.00,VWS V14.01,2013-05-11 14:30:00,
2013-05-11 10:33:00,47.5,44.4,29.87,WNW,297,1.0,7.0,89,0.00,,---,0.00,VWS V14.01,2013-05-11 14:33:00,
2013-05-11 10:38:00,47.6,44.2,29.87,WSW,251,5.0,7.0,88,0.00,,---,0.00,VWS V14.01,2013-05-11 14:38:00,
2013-05-11 10:43:00,47.6,43.9,29.87,WSW,243,0.0,7.0,87,0.00,,---,0.00,VWS V14.01,2013-05-11 14:43:00,
2013-05-11 10:48:00,47.8,44.4,29.87,SW,214,2.0,7.0,88,0.00,,---,0.00,VWS V14.01,2013-05-11 14:48:00,
2013-05-11 10:53:00,47.9,44.2,29.87,WNW,284,2.0,7.0,87,0.00,,---,0.00,VWS V14.01,2013-05-11 14:53:00,
2013-05-11 10:58:00,48.1,44.4,29.87,SW,219,2.0,7.0,87,0.00,,---,0.00,VWS V14.01,2013-05-11 14:58:00,
2013-05-11 11:00:00,48.2,44.5,29.87,WNW,301,1.0,7.0,87,0.00,,---,0.00,VWS V14.01,2013-05-11 15:00:00,
2013-05-11 11:03:00,48.3,44.6,29.87,WSW,238,3.0,4.0,87,0.00,,---,0.00,VWS V14.01,2013-05-11 15:03:00,
2013-05-11 11:08:00,48.3,44.6,29.87,WSW,242,2.0,4.0,87,0.00,,---,0.00,VWS V14.01,2013-05-11 15:08:00,
2013-05-11 11:13:00,48.5,44.8,29.87,WNW,283,2.0,6.0,87,0.00,,---,0.00,VWS V14.01,2013-05-11 15:13:00,
2013-05-11 11:18:00,48.6,44.6,29.87,West,279,6.0,6.0,86,0.00,,---,0.00,VWS V14.01,2013-05-11 15:18:00,
2013-05-11 11:23:00,48.7,44.7,29.88,West,281,1.0,7.0,86,0.00,,---,0.00,VWS V14.01,2013-05-11 15:23:00,
2013-05-11 11:28:00,48.9,44.9,29.88,SW,218,1.0,7.0,86,0.00,,---,0.00,VWS V14.01,2013-05-11 15:28:00,
2013-05-11 11:30:00,48.9,44.9,29.88,WSW,238,0.0,7.0,86,0.00,,---,0.00,VWS V14.01,2013-05-11 15:30:00,
2013-05-11 11:33:00,48.9,44.9,29.88,SW,225,1.0,7.0,86,0.00,,---,0.00,VWS V14.01,2013-05-11 15:33:00,
2013-05-11 11:38:00,48.9,44.9,29.88,WSW,238,2.0,7.0,86,0.00,,---,0.00,VWS V14.01,2013-05-11 15:38:00,
2013-05-11 11:43:00,48.8,44.5,29.88,SSW,198,4.0,7.0,85,0.00,,---,0.00,VWS V14.01,2013-05-11 15:43:00,
2013-05-11 11:48:00,48.7,44.4,29.88,WSW,242,8.0,8.0,85,0.00,,---,0.00,VWS V14.01,2013-05-11 15:48:00,
2013-05-11 11:53:00,48.8,44.8,29.88,SW,228,2.0,9.0,86,0.00,,---,0.00,VWS V14.01,2013-05-11 15:53:00,
2013-05-11 11:58:00,48.9,44.9,29.88,SW,233,4.0,9.0,86,0.00,,---,0.00,VWS V14.01,2013-05-11 15:58:00,
2013-05-11 12:00:00,48.8,44.5,29.88,South,191,0.0,9.0,85,0.00,,---,0.00,VWS V14.01,2013-05-11 16:00:00,
2013-05-11 12:03:00,48.8,44.5,29.88,WSW,240,2.0,7.0,85,0.00,,---,0.00,VWS V14.01,2013-05-11 16:03:00,
2013-05-11 12:08:00,49.0,45.0,29.87,SSW,211,4.0,7.0,86,0.00,,---,0.00,VWS V14.01,2013-05-11 16:08:00,
2013-05-11 12:14:00,49.0,45.0,29.87,South,188,1.0,8.0,86,0.00,,---,0.00,VWS V14.01,2013-05-11 16:14:00,
2013-05-11 12:19:00,49.3,45.0,29.87,East,94,2.0,8.0,85,0.00,,---,0.00,VWS V14.01,2013-05-11 16:19:00,
2013-05-11 12:24:00,49.6,45.3,29.86,WSW,247,3.0,8.0,85,0.00,,---,0.00,VWS V14.01,2013-05-11 16:24:00,
2013-05-11 12:29:00,49.6,45.3,29.86,West,269,4.0,8.0,85,0.00,,---,0.00,VWS V14.01,2013-05-11 16:29:00,
2013-05-11 12:30:00,49.6,45.3,29.86,SSW,212,4.0,8.0,85,0.00,,---,0.00,VWS V14.01,2013-05-11 16:30:00,
2013-05-11 12:34:00,49.7,45.1,29.86,SSW,207,1.0,9.0,84,0.00,,---,0.00,VWS V14.01,2013-05-11 16:34:00,
2013-05-11 12:39:00,50.1,45.8,29.86,WSW,248,2.0,9.0,85,0.00,,---,0.00,VWS V14.01,2013-05-11 16:39:00,
2013-05-11 12:44:00,49.9,45.0,29.86,WSW,249,1.0,9.0,83,0.00,,---,0.00,VWS V14.01,2013-05-11 16:44:00,
2013-05-11 12:49:00,50.1,45.5,29.86,WNW,295,3.0,9.0,84,0.00,,---,0.00,VWS V14.01,2013-05-11 16:49:00,
2013-05-11 12:54:00,50.2,45.6,29.86,SE,134,2.0,9.0,84,0.00,,---,0.00,VWS V14.01,2013-05-11 16:54:00,
2013-05-11 12:59:00,50.5,45.5,29.85,SSW,212,1.0,9.0,83,0.00,,---,0.00,VWS V14.01,2013-05-11 16:59:00,
2013-05-11 13:04:00,50.7,45.4,29.85,West,269,1.0,7.0,82,0.00,,---,0.00,VWS V14.01,2013-05-11 17:04:00,
2013-05-11 13:09:00,50.8,45.8,29.85,WNW,282,3.0,8.0,83,0.00,,---,0.00,VWS V14.01,2013-05-11 17:09:00,
2013-05-11 13:14:00,50.9,45.9,29.85,West,273,6.0,9.0,83,0.00,,---,0.00,VWS V14.01,2013-05-11 17:14:00,
2013-05-11 13:19:00,50.8,45.5,29.85,WSW,256,2.0,10.0,82,0.00,,---,0.00,VWS V14.01,2013-05-11 17:19:00,
2013-05-11 13:24:00,50.8,45.5,29.85,SSE,150,1.0,14.0,82,0.00,,---,0.00,VWS V14.01,2013-05-11 17:24:00,
2013-05-11 13:29:00,51.0,45.7,29.85,SW,233,4.0,14.0,82,0.00,,---,0.00,VWS V14.01,2013-05-11 17:29:00,
2013-05-11 13:30:00,51.1,46.1,29.85,West,277,0.0,14.0,83,0.00,,---,0.00,VWS V14.01,2013-05-11 17:30:00,
2013-05-11 13:34:00,51.2,45.9,29.85,SE,125,1.0,11.0,82,0.00,,---,0.00,VWS V14.01,2013-05-11 17:34:00,
2013-05-11 13:39:00,51.6,46.3,29.85,SW,216,3.0,11.0,82,0.00,,---,0.00,VWS V14.01,2013-05-11 17:39:00,
2013-05-11 13:44:00,51.7,46.1,29.85,SW,229,8.0,11.0,81,0.00,,---,0.00,VWS V14.01,2013-05-11 17:44:00,
2013-05-11 13:49:00,51.2,45.9,29.85,WSW,257,1.0,11.0,82,0.00,,---,0.00,VWS V14.01,2013-05-11 17:49:00,
2013-05-11 13:54:00,51.1,45.8,29.84,SSW,195,4.0,11.0,82,0.00,,---,0.00,VWS V14.01,2013-05-11 17:54:00,
2013-05-11 13:59:00,51.4,45.8,29.84,SW,228,3.0,11.0,81,0.00,,---,0.00,VWS V14.01,2013-05-11 17:59:00,
2013-05-11 14:00:00,51.4,46.1,29.84,SE,137,2.0,11.0,82,0.00,,---,0.00,VWS V14.01,2013-05-11 18:00:00,
2013-05-11 14:04:00,51.6,46.3,29.85,SSE,163,4.0,10.0,82,0.00,,---,0.00,VWS V14.01,2013-05-11 18:04:00,
2013-05-11 14:09:00,51.4,46.1,29.84,West,266,4.0,12.0,82,0.00,,---,0.00,VWS V14.01,2013-05-11 18:09:00,
2013-05-11 14:14:00,51.5,46.2,29.84,SW,214,1.0,12.0,82,0.00,,---,0.00,VWS V14.01,2013-05-11 18:14:00,
2013-05-11 14:19:00,51.6,46.0,29.84,WSW,242,8.0,12.0,81,0.00,,---,0.00,VWS V14.01,2013-05-11 18:19:00,
2013-05-11 14:24:00,51.4,46.4,29.84,SW,231,4.0,12.0,83,0.00,,---,0.00,VWS V14.01,2013-05-11 18:24:00,
2013-05-11 14:29:00,51.3,46.0,29.84,WSW,250,4.0,12.0,82,0.00,,---,0.00,VWS V14.01,2013-05-11 18:29:00,
2013-05-11 14:30:00,51.2,45.9,29.84,SSW,204,6.0,12.0,82,0.00,,---,0.00,VWS V14.01,2013-05-11 18:30:00,
2013-05-11 14:34:00,51.2,45.9,29.84,South,172,6.0,9.0,82,0.00,,---,0.00,VWS V14.01,2013-05-11 18:34:00,
2013-05-11 14:39:00,51.2,46.2,29.84,SW,228,4.0,9.0,83,0.00,,---,0.00,VWS V14.01,2013-05-11 18:39:00,
2013-05-11 14:44:00,51.5,45.9,29.84,SW,230,3.0,12.0,81,0.00,,---,0.00,VWS V14.01,2013-05-11 18:44:00,
2013-05-11 14:49:00,51.4,45.8,29.84,WSW,243,4.0,12.0,81,0.00,,---,0.00,VWS V14.01,2013-05-11 18:49:00,
2013-05-11 14:54:00,51.8,45.8,29.84,SSW,203,2.0,12.0,80,0.00,,---,0.00,VWS V14.01,2013-05-11 18:54:00,
2013-05-11 14:59:00,52.1,46.5,29.83,SE,138,3.0,12.0,81,0.00,,---,0.00,VWS V14.01,2013-05-11 18:59:00,
2013-05-11 15:00:00,52.2,46.5,29.83,South,173,6.0,12.0,81,0.00,,---,0.00,VWS V14.01,2013-05-11 19:00:00,
2013-05-11 15:04:00,52.6,46.3,29.84,SSW,194,1.0,9.0,79,0.00,,---,0.00,VWS V14.01,2013-05-11 19:04:00,
2013-05-11 15:09:00,52.9,46.6,29.83,SE,142,6.0,10.0,79,0.00,,---,0.00,VWS V14.01,2013-05-11 19:09:00,
2013-05-11 15:14:00,52.8,46.5,29.84,SSW,200,5.0,10.0,79,0.00,,---,0.00,VWS V14.01,2013-05-11 19:14:00,
2013-05-11 15:19:00,52.5,46.5,29.83,SSE,156,2.0,10.0,80,0.00,,---,0.00,VWS V14.01,2013-05-11 19:19:00,
2013-05-11 15:24:00,52.3,46.3,29.83,SSW,200,2.0,10.0,80,0.00,,---,0.00,VWS V14.01,2013-05-11 19:24:00,
2013-05-11 15:29:00,52.2,46.2,29.83,SSE,152,6.0,10.0,80,0.00,,---,0.00,VWS V14.01,2013-05-11 19:29:00,
2013-05-11 15:30:00,52.2,46.2,29.83,SW,229,7.0,10.0,80,0.00,,---,0.00,VWS V14.01,2013-05-11 19:30:00,
2013-05-11 15:34:00,52.2,46.5,29.83,South,176,3.0,8.0,81,0.00,,---,0.00,VWS V14.01,2013-05-11 19:34:00,
2013-05-11 15:39:00,52.4,47.1,29.83,SW,224,4.0,8.0,82,0.00,,---,0.00,VWS V14.01,2013-05-11 19:39:00,
2013-05-11 15:44:00,52.5,46.8,29.83,WSW,249,2.0,8.0,81,0.00,,---,0.00,VWS V14.01,2013-05-11 19:44:00,
2013-05-11 15:49:00,52.6,47.3,29.83,SSW,203,2.0,8.0,82,0.00,,---,0.00,VWS V14.01,2013-05-11 19:49:00,
2013-05-11 15:54:00,52.3,47.6,29.82,WSW,253,2.0,8.0,84,0.00,,---,0.00,VWS V14.01,2013-05-11 19:54:00,
2013-05-11 15:59:00,52.0,47.6,29.83,South,188,2.0,8.0,85,0.00,,---,0.00,VWS V14.01,2013-05-11 19:59:00,
2013-05-11 16:00:00,51.9,47.5,29.82,SW,214,2.0,8.0,85,0.00,,---,0.00,VWS V14.01,2013-05-11 20:00:00,
2013-05-11 16:04:00,51.9,47.8,29.82,South,176,0.0,6.0,86,0.00,,---,0.00,VWS V14.01,2013-05-11 20:04:00,
2013-05-11 16:09:00,52.0,48.0,29.82,SW,224,2.0,7.0,86,0.00,,---,0.00,VWS V14.01,2013-05-11 20:09:00,
2013-05-11 16:14:00,52.2,48.2,29.83,SSW,212,1.0,8.0,86,0.00,,---,0.00,VWS V14.01,2013-05-11 20:14:00,
2013-05-11 16:19:00,52.2,48.2,29.82,WSW,253,2.0,8.0,86,0.00,,---,0.00,VWS V14.01,2013-05-11 20:19:00,
2013-05-11 16:24:00,52.3,48.2,29.82,SW,232,3.0,8.0,86,0.00,,---,0.00,VWS V14.01,2013-05-11 20:24:00,
2013-05-11 16:29:00,52.4,48.3,29.82,SSW,211,2.0,9.0,86,0.00,,---,0.00,VWS V14.01,2013-05-11 20:29:00,
2013-05-11 16:30:00,52.5,48.4,29.82,SW,214,1.0,9.0,86,0.00,,---,0.00,VWS V14.01,2013-05-11 20:30:00,
2013-05-11 16:34:00,52.6,48.5,29.81,SSW,200,5.0,6.0,86,0.00,,---,0.00,VWS V14.01,2013-05-11 20:34:00,
2013-05-11 16:39:00,52.8,48.7,29.81,SSE,153,3.0,6.0,86,0.00,,---,0.00,VWS V14.01,2013-05-11 20:39:00,
2013-05-11 16:44:00,53.0,48.9,29.81,SSW,210,4.0,7.0,86,0.00,,---,0.00,VWS V14.01,2013-05-11 20:44:00,
2013-05-11 16:49:00,53.1,49.0,29.81,SE,138,1.0,7.0,86,0.00,,---,0.00,VWS V14.01,2013-05-11 20:49:00,
2013-05-11 16:54:00,53.9,49.8,29.80,SW,214,3.0,8.0,86,0.00,,---,0.00,VWS V14.01,2013-05-11 20:54:00,
2013-05-11 16:59:00,54.5,49.5,29.80,WSW,249,5.0,11.0,83,0.00,,---,0.00,VWS V14.01,2013-05-11 20:59:00,
2013-05-11 17:00:00,54.5,49.5,29.80,SE,135,3.0,11.0,83,0.00,,---,0.00,VWS V14.01,2013-05-11 21:00:00,
2013-05-11 17:04:00,54.6,49.5,29.80,West,274,2.0,7.0,83,0.00,,---,0.00,VWS V14.01,2013-05-11 21:04:00,
2013-05-11 17:09:00,54.7,49.7,29.80,SW,236,3.0,7.0,83,0.00,,---,0.00,VWS V14.01,2013-05-11 21:09:00,
2013-05-11 17:14:00,55.0,49.9,29.80,SW,224,6.0,8.0,83,0.00,,---,0.00,VWS V14.01,2013-05-11 21:14:00,
2013-05-11 17:19:00,55.1,49.7,29.80,SSW,203,5.0,10.0,82,0.00,,---,0.00,VWS V14.01,2013-05-11 21:19:00,
2013-05-11 17:24:00,54.9,49.5,29.82,WNW,300,2.0,10.0,82,0.00,,---,0.00,VWS V14.01,2013-05-11 21:24:00,
2013-05-11 17:29:00,50.8,43.5,29.84,NW,326,8.0,22.0,76,0.00,,---,0.00,VWS V14.01,2013-05-11 21:29:00,
2013-05-11 17:30:00,50.3,43.0,29.84,NW,321,6.0,22.0,76,0.00,,---,0.00,VWS V14.01,2013-05-11 21:30:00,
2013-05-11 17:34:00,48.1,43.2,29.85,NW,321,5.0,20.0,83,0.03,,---,0.03,VWS V14.01,2013-05-11 21:34:00,
2013-05-11 17:39:00,46.5,42.8,29.85,NNW,330,16.0,21.0,87,0.05,,---,0.05,VWS V14.01,2013-05-11 21:39:00,
2013-05-11 17:45:00,45.3,42.0,29.85,NNW,339,8.0,23.0,88,0.06,,---,0.06,VWS V14.01,2013-05-11 21:45:00,
2013-05-11 17:50:00,44.7,41.7,29.86,WNW,298,10.0,23.0,89,0.06,,---,0.06,VWS V14.01,2013-05-11 21:50:00,
2013-05-11 17:55:00,44.4,41.7,29.86,NW,312,6.0,23.0,90,0.06,,---,0.06,VWS V14.01,2013-05-11 21:55:00,
2013-05-11 18:00:00,44.2,41.7,29.87,NNW,340,8.0,23.0,91,0.07,,---,0.07,VWS V14.01,2013-05-11 22:00:00,
2013-05-11 18:05:00,44.1,41.4,29.87,North,352,11.0,16.0,90,0.07,,---,0.07,VWS V14.01,2013-05-11 22:05:00,
2013-05-11 18:10:00,44.0,40.7,29.86,NNW,335,5.0,16.0,88,0.07,,---,0.07,VWS V14.01,2013-05-11 22:10:00,
2013-05-11 18:15:00,44.0,40.1,29.86,NW,319,3.0,21.0,86,0.07,,---,0.07,VWS V14.01,2013-05-11 22:15:00,
2013-05-11 18:20:00,44.0,39.8,29.87,NNW,329,7.0,21.0,85,0.07,,---,0.07,VWS V14.01,2013-05-11 22:20:00,
2013-05-11 18:25:00,44.0,39.5,29.87,NNW,327,8.0,21.0,84,0.07,,---,0.07,VWS V14.01,2013-05-11 22:25:00,
2013-05-11 18:30:00,44.2,39.7,29.87,NW,312,6.0,21.0,84,0.07,,---,0.07,VWS V14.01,2013-05-11 22:30:00,
2013-05-11 18:35:00,44.4,39.6,29.87,North,350,7.0,16.0,83,0.07,,---,0.07,VWS V14.01,2013-05-11 22:35:00,
2013-05-11 18:40:00,44.8,40.0,29.87,NW,326,6.0,16.0,83,0.07,,---,0.07,VWS V14.01,2013-05-11 22:40:00,
2013-05-11 18:45:00,45.8,40.0,29.88,NNW,333,9.0,16.0,80,0.07,,---,0.07,VWS V14.01,2013-05-11 22:45:00,
2013-05-11 18:50:00,46.6,40.5,29.88,North,350,4.0,16.0,79,0.07,,---,0.07,VWS V14.01,2013-05-11 22:50:00,
2013-05-11 18:55:00,46.8,40.0,29.88,NNW,327,8.0,16.0,77,0.07,,---,0.07,VWS V14.01,2013-05-11 22:55:00,
2013-05-11 19:00:00,47.0,40.5,29.88,NNW,335,9.0,16.0,78,0.07,,---,0.07,VWS V14.01,2013-05-11 23:00:00,
2013-05-11 19:05:00,47.2,40.0,29.88,NNW,328,5.0,13.0,76,0.00,,---,0.07,VWS V14.01,2013-05-11 23:05:00,
2013-05-11 19:10:00,47.4,40.2,29.89,West,278,6.0,15.0,76,0.00,,---,0.07,VWS V14.01,2013-05-11 23:10:00,
2013-05-11 19:15:00,47.7,40.8,29.89,WNW,298,1.0,15.0,77,0.00,,---,0.07,VWS V14.01,2013-05-11 23:15:00,
2013-05-11 19:20:00,47.8,40.3,29.89,NNW,346,7.0,15.0,75,0.00,,---,0.07,VWS V14.01,2013-05-11 23:20:00,
2013-05-11 19:25:00,47.8,39.9,29.89,NNW,336,8.0,15.0,74,0.00,,---,0.07,VWS V14.01,2013-05-11 23:25:00,
2013-05-11 19:30:00,47.9,39.7,29.89,NW,323,4.0,16.0,73,0.00,,---,0.07,VWS V14.01,2013-05-11 23:30:00,
2013-05-11 19:35:00,48.0,39.8,29.90,NNW,333,4.0,9.0,73,0.00,,---,0.07,VWS V14.01,2013-05-11 23:35:00,
2013-05-11 19:40:00,47.9,39.3,29.90,NW,321,9.0,13.0,72,0.00,,---,0.07,VWS V14.01,2013-05-11 23:40:00,
2013-05-11 19:45:00,47.7,38.8,29.90,NNW,336,6.0,18.0,71,0.00,,---,0.07,VWS V14.01,2013-05-11 23:45:00,
2013-05-11 19:50:00,47.6,39.4,29.91,NW,323,11.0,18.0,73,0.00,,---,0.07,VWS V14.01,2013-05-11 23:50:00,
2013-05-11 19:55:00,47.4,38.5,29.91,WSW,245,5.0,18.0,71,0.00,,---,0.07,VWS V14.01,2013-05-11 23:55:00,
2013-05-11 20:00:00,47.3,38.7,29.91,NNW,333,5.0,18.0,72,0.00,,---,0.07,VWS V14.01,2013-05-12 00:00:00,
2013-05-11 20:05:00,47.1,38.5,29.91,NNW,348,12.0,12.0,72,0.00,,---,0.07,VWS V14.01,2013-05-12 00:05:00,
2013-05-11 20:10:00,46.8,38.3,29.91,WNW,291,9.0,18.0,72,0.00,,---,0.07,VWS V14.01,2013-05-12 00:10:00,
2013-05-11 20:15:00,46.8,37.2,29.91,NNW,336,8.0,18.0,69,0.00,,---,0.07,VWS V14.01,2013-05-12 00:15:00,
2013-05-11 20:20:00,46.5,36.5,29.91,NW,313,9.0,18.0,68,0.00,,---,0.07,VWS V14.01,2013-05-12 00:20:00,
2013-05-11 20:25:00,46.2,36.6,29.91,NW,318,8.0,18.0,69,0.00,,---,0.07,VWS V14.01,2013-05-12 00:25:00,
2013-05-11 20:30:00,46.1,36.1,29.91,NNE,15,5.0,18.0,68,0.00,,---,0.07,VWS V14.01,2013-05-12 00:30:00,
2013-05-11 20:35:00,45.9,36.3,29.91,NW,316,5.0,8.0,69,0.00,,---,0.07,VWS V14.01,2013-05-12 00:35:00,
2013-05-11 20:40:00,45.8,36.2,29.92,SW,219,3.0,8.0,69,0.00,,---,0.07,VWS V14.01,2013-05-12 00:40:00,
2013-05-11 20:45:00,45.7,35.8,29.92,NNW,344,7.0,10.0,68,0.00,,---,0.07,VWS V14.01,2013-05-12 00:45:00,
2013-05-11 20:50:00,45.6,36.0,29.92,NW,304,4.0,10.0,69,0.00,,---,0.07,VWS V14.01,2013-05-12 00:50:00,
2013-05-11 20:55:00,45.5,36.3,29.92,NW,321,5.0,10.0,70,0.00,,---,0.07,VWS V14.01,2013-05-12 00:55:00,
2013-05-11 21:00:00,45.5,36.3,29.92,NW,325,1.0,10.0,70,0.00,,---,0.07,VWS V14.01,2013-05-12 01:00:00,
2013-05-11 21:05:00,45.5,36.7,29.92,NNW,333,2.0,8.0,71,0.00,,---,0.07,VWS V14.01,2013-05-12 01:05:00,
2013-05-11 21:10:00,45.6,36.8,29.93,NNW,331,3.0,8.0,71,0.00,,---,0.07,VWS V14.01,2013-05-12 01:10:00,
2013-05-11 21:15:00,45.5,36.7,29.93,NNW,347,4.0,8.0,71,0.00,,---,0.07,VWS V14.01,2013-05-12 01:15:00,
2013-05-11 21:20:00,45.5,36.7,29.93,NNW,348,1.0,8.0,71,0.00,,---,0.07,VWS V14.01,2013-05-12 01:20:00,
2013-05-11 21:25:00,45.3,36.1,29.93,NNW,331,3.0,8.0,70,0.00,,---,0.07,VWS V14.01,2013-05-12 01:25:00,
2013-05-11 21:30:00,45.2,36.0,29.94,NW,307,4.0,4.0,70,0.00,,---,0.07,VWS V14.01,2013-05-12 01:30:00,
2013-05-11 21:35:00,45.1,35.5,29.94,North,358,2.0,7.0,69,0.00,,---,0.07,VWS V14.01,2013-05-12 01:35:00,
2013-05-11 21:40:00,45.0,35.8,29.94,NNW,337,2.0,8.0,70,0.00,,---,0.07,VWS V14.01,2013-05-12 01:40:00,
2013-05-11 21:45:00,44.9,35.4,29.94,NW,319,4.0,8.0,69,0.00,,---,0.07,VWS V14.01,2013-05-12 01:45:00,
2013-05-11 21:50:00,44.8,35.3,29.94,North,352,1.0,8.0,69,0.00,,---,0.07,VWS V14.01,2013-05-12 01:50:00,
2013-05-11 21:55:00,44.7,35.5,29.94,NNW,330,3.0,8.0,70,0.00,,---,0.07,VWS V14.01,2013-05-12 01:55:00,
2013-05-11 22:00:00,44.4,35.2,29.95,NW,321,0.0,0.0,70,0.00,,---,0.07,VWS V14.01,2013-05-12 02:00:00,
2013-05-11 22:05:00,44.2,35.0,29.95,North,356,2.0,5.0,70,0.00,,---,0.07,VWS V14.01,2013-05-12 02:05:00,
2013-05-11 22:10:00,44.3,35.2,29.95,NNW,339,2.0,7.0,70,0.00,,---,0.07,VWS V14.01,2013-05-12 02:10:00,
2013-05-11 22:15:00,43.9,35.1,29.95,NNW,332,2.0,7.0,71,0.00,,---,0.07,VWS V14.01,2013-05-12 02:15:00,
2013-05-11 22:20:00,43.4,35.3,29.95,NE,38,0.0,7.0,73,0.00,,---,0.07,VWS V14.01,2013-05-12 02:20:00,
2013-05-11 22:25:00,43.1,35.0,29.96,WSW,252,2.0,9.0,73,0.00,,---,0.07,VWS V14.01,2013-05-12 02:25:00,
2013-05-11 22:30:00,43.0,35.3,29.96,ENE,77,1.0,1.0,74,0.00,,---,0.07,VWS V14.01,2013-05-12 02:30:00,
2013-05-11 22:35:00,42.8,35.1,29.96,NNW,335,0.0,3.0,74,0.00,,---,0.07,VWS V14.01,2013-05-12 02:35:00,
2013-05-11 22:40:00,42.9,34.8,29.96,North,356,1.0,5.0,73,0.00,,---,0.07,VWS V14.01,2013-05-12 02:40:00,
2013-05-11 22:45:00,42.8,35.1,29.96,SW,226,0.0,5.0,74,0.00,,---,0.07,VWS V14.01,2013-05-12 02:45:00,
2013-05-11 22:50:00,42.5,35.2,29.96,SW,226,0.0,5.0,75,0.00,,---,0.07,VWS V14.01,2013-05-12 02:50:00,
2013-05-11 22:55:00,42.0,35.0,29.96,SW,231,0.0,5.0,76,0.00,,---,0.07,VWS V14.01,2013-05-12 02:55:00,
2013-05-11 23:00:00,41.5,34.8,29.97,NW,307,0.0,1.0,77,0.00,,---,0.07,VWS V14.01,2013-05-12 03:00:00,
2013-05-11 23:05:00,41.3,34.7,29.97,NNW,339,0.0,1.0,77,0.00,,---,0.07,VWS V14.01,2013-05-12 03:05:00,
2013-05-11 23:10:00,41.1,34.5,29.97,WNW,291,0.0,4.0,77,0.00,,---,0.07,VWS V14.01,2013-05-12 03:10:00,
2013-05-11 23:15:00,41.2,34.5,29.97,WSW,246,0.0,4.0,77,0.00,,---,0.07,VWS V14.01,2013-05-12 03:15:00,
2013-05-11 23:20:00,41.2,34.5,29.97,NNW,337,0.0,4.0,77,0.00,,---,0.07,VWS V14.01,2013-05-12 03:20:00,
2013-05-11 23:25:00,41.2,34.5,29.97,WSW,239,0.0,4.0,77,0.00,,---,0.07,VWS V14.01,2013-05-12 03:25:00,
2013-05-11 23:30:00,41.0,34.3,29.97,NNW,340,1.0,4.0,77,0.00,,---,0.07,VWS V14.01,2013-05-12 03:30:00,
2013-05-11 23:31:00,41.0,34.3,29.97,NNE,27,1.0,2.0,77,0.00,,---,0.07,VWS V14.01,2013-05-12 03:31:00,
2013-05-11 23:35:00,41.0,34.3,29.97,NW,314,0.0,2.0,77,0.00,,---,0.07,VWS V14.01,2013-05-12 03:35:00,
2013-05-11 23:40:00,40.9,34.3,29.97,West,276,2.0,3.0,77,0.00,,---,0.07,VWS V14.01,2013-05-12 03:40:00,
2013-05-11 23:46:00,40.6,34.3,29.97,NNE,28,1.0,3.0,78,0.00,,---,0.07,VWS V14.01,2013-05-12 03:46:00,
2013-05-11 23:51:00,40.5,34.2,29.97,NNW,340,0.0,3.0,78,0.00,,---,0.07,VWS V14.01,2013-05-12 03:51:00,
2013-05-11 23:56:00,40.5,34.2,29.97,SW,229,0.0,3.0,78,0.00,,---,0.07,VWS V14.01,2013-05-12 03:56:00,